DM5RC Weather Reports


time (UTC)temp
C
wind
direction
speed
KPH
gust
KPH
rain 1hr
cm
rain 24hr
cm
rain mn
cm
humidity
%
barometer
mb
20260510132327 20 61 4.8 9.7 0.00 0.00 0.00 54 1010.8
20260510131316 20 107 4.8 11.3 0.00 0.00 0.00 54 1011.0
20260510130816 20 77 4.8 9.7 0.00 0.00 0.00 53 1011.0
20260510130319 20 46 4.8 8.0 0.00 0.00 0.00 56 1011.0
20260510125813 20 54 4.8 11.3 0.00 0.00 0.00 55 1011.2
20260510125316 20 59 6.4 11.3 0.00 0.00 0.00 55 1011.1
20260510124819 20 56 6.4 11.3 0.00 0.00 0.00 54 1011.2
20260510124321 20 77 6.4 11.3 0.00 0.00 0.00 55 1011.2
20260510123824 20 50 6.4 11.3 0.00 0.00 0.00 54 1011.3
20260510123322 20 51 4.8 11.3 0.00 0.00 0.00 54 1011.4
20260510122825 20 61 8.0 11.3 0.00 0.00 0.00 52 1011.5
20260510122345 20 28 4.8 12.9 0.00 0.00 0.00 54 1011.6
20260510121827 20 46 6.4 12.9 0.00 0.00 0.00 55 1011.6
20260510121328 20 49 6.4 14.5 0.00 0.00 0.00 55 1011.7
20260510120850 20 47 8.0 14.5 0.00 0.00 0.00 56 1011.7
20260510120330 20 349 8.0 12.9 0.00 0.00 0.00 55 1011.7
20260510115322 20 39 6.4 11.3 0.00 0.00 0.00 55 1011.9
20260510114822 20 45 6.4 11.3 0.00 0.00 0.00 54 1011.8
20260510114323 20 42 8.0 11.3 0.00 0.00 0.00 55 1012.0
20260510113824 20 58 8.0 11.3 0.00 0.00 0.00 54 1012.1
20260510113344 20 42 4.8 9.7 0.00 0.00 0.00 54 1012.2
20260510112823 20 54 4.8 8.0 0.00 0.00 0.00 56 1012.2
20260510112324 20 51 3.2 9.7 0.00 0.00 0.00 58 1012.3
20260510111825 19 58 4.8 9.7 0.00 0.00 0.00 57 1012.3
20260510111328 19 76 3.2 8.0 0.00 0.00 0.00 58 1012.4
20260510110832 19 13 3.2 8.0 0.00 0.00 0.00 56 1012.4
20260510110316 19 36 4.8 12.9 0.00 0.00 0.00 57 1012.4
20260510105820 18 79 4.8 12.9 0.00 0.00 0.00 57 1012.5
20260510105320 18 53 8.0 17.7 0.00 0.00 0.00 57 1012.6
20260510104820 19 64 11.3 17.7 0.00 0.00 0.00 56 1012.5
20260510104340 19 60 3.2 12.9 0.00 0.00 0.00 58 1012.6
20260510103907 18 42 4.8 14.5 0.00 0.00 0.00 58 1012.8
20260510103323 18 53 11.3 14.5 0.00 0.00 0.00 58 1012.8
20260510102824 18 48 9.7 12.9 0.00 0.00 0.00 58 1012.8
20260510102324 19 68 6.4 11.3 0.00 0.00 0.00 58 1012.9
20260510101826 18 66 6.4 11.3 0.00 0.00 0.00 58 1012.9
20260510101329 18 60 6.4 11.3 0.00 0.00 0.00 59 1013.1
20260510100832 18 23 6.4 12.9 0.00 0.00 0.00 61 1013.1
20260510100314 18 61 6.4 12.9 0.00 0.00 0.00 59 1013.0
20260510095817 18 82 6.4 12.9 0.00 0.00 0.00 58 1013.1
20260510095320 18 39 9.7 14.5 0.00 0.00 0.00 58 1013.1
20260510094822 18 84 9.7 14.5 0.00 0.00 0.00 58 1013.2
20260510094324 19 137 1.6 9.7 0.00 0.00 0.00 57 1013.3
20260510093825 18 120 1.6 11.3 0.00 0.00 0.00 60 1013.4
20260510093349 18 28 4.8 11.3 0.00 0.00 0.00 61 1013.5
20260510092851 17 28 3.2 9.7 0.00 0.00 0.00 62 1013.5
20260510092331 17 57 4.8 9.7 0.00 0.00 0.00 61 1013.6
20260510091824 17 51 6.4 12.9 0.00 0.00 0.00 60 1013.7
20260510091347 17 45 8.0 12.9 0.00 0.00 0.00 61 1013.6
20260510090827 18 48 8.0 9.7 0.00 0.00 0.00 60 1013.7
20260510090349 18 103 4.8 11.3 0.00 0.00 0.00 61 1013.8
20260510085831 17 75 4.8 11.3 0.00 0.00 0.00 64 1013.7
20260510085353 17 35 8.0 9.7 0.00 0.00 0.00 64 1013.8
20260510084813 17 64 4.8 11.3 0.00 0.00 0.00 64 1013.9
20260510084313 16 46 8.0 11.3 0.00 0.00 0.00 63 1014.0
20260510083814 16 60 4.8 11.3 0.00 0.00 0.00 63 1014.1
20260510083315 16 42 8.0 11.3 0.00 0.00 0.00 62 1014.2
20260510082815 17 38 3.2 9.7 0.00 0.00 0.00 62 1014.1
20260510082318 16 96 4.8 11.3 0.00 0.00 0.00 63 1014.2
20260510081842 16 44 8.0 11.3 0.00 0.00 0.00 64 1014.2
20260510081319 17 53 3.2 9.7 0.00 0.00 0.00 64 1014.3
20260510080816 16 51 4.8 9.7 0.00 0.00 0.00 64 1014.3
20260510080316 16 68 3.2 11.3 0.00 0.00 0.00 65 1014.4
20260510075812 16 195 6.4 11.3 0.00 0.00 0.00 64 1014.5
20260510075313 16 148 4.8 11.3 0.00 0.00 0.00 64 1014.4
20260510074816 16 122 6.4 11.3 0.00 0.00 0.00 64 1014.4
20260510074318 16 127 4.8 11.3 0.00 0.00 0.00 65 1014.4
20260510073820 15 172 1.6 12.9 0.00 0.00 0.00 66 1014.4
20260510073322 15 141 1.6 11.3 0.00 0.00 0.00 65 1014.5
20260510072825 15 218 6.4 11.3 0.00 0.00 0.00 65 1014.6
20260510072326 15 136 4.8 14.5 0.00 0.00 0.00 66 1014.6
20260510071825 15 144 3.2 8.0 0.00 0.00 0.00 68 1014.7
20260510071324 15 143 1.6 6.4 0.00 0.00 0.00 69 1014.7
20260510070824 15 39 1.6 9.7 0.00 0.00 0.00 70 1014.8
20260510070324 14 153 3.2 11.3 0.00 0.00 0.00 69 1014.8
20260510065823 14 139 4.8 11.3 0.00 0.00 0.00 69 1014.9
20260510065323 14 115 4.8 11.3 0.00 0.00 0.00 70 1014.9
20260510064823 13 103 3.2 11.3 0.00 0.00 0.00 71 1014.9
20260510064324 13 134 4.8 12.9 0.00 0.00 0.00 71 1014.9
20260510063826 13 104 8.0 12.9 0.00 0.00 0.00 71 1014.9
20260510063329 13 150 4.8 9.7 0.00 0.00 0.00 74 1015.0
20260510062851 13 93 3.2 11.3 0.00 0.00 0.00 74 1014.9
20260510062353 12 181 3.2 11.3 0.00 0.00 0.00 75 1015.0
20260510061814 12 120 1.6 11.3 0.00 0.00 0.00 76 1015.2
20260510061317 12 135 4.8 11.3 0.00 0.00 0.00 76 1015.2
20260510060817 11 107 1.6 11.3 0.00 0.00 0.00 80 1015.1
20260510060318 11 138 3.2 8.0 0.00 0.00 0.00 80 1015.1
20260510055819 11 151 4.8 8.0 0.00 0.00 0.00 81 1015.2
20260510055319 11 93 3.2 6.4 0.00 0.00 0.00 82 1015.2
20260510054820 11 141 1.6 9.7 0.00 0.00 0.00 84 1015.3
20260510054319 10 118 3.2 11.3 0.00 0.00 0.00 84 1015.4
20260510053820 10 137 8.0 11.3 0.00 0.00 0.00 84 1015.3
20260510053321 10 102 3.2 8.0 0.00 0.00 0.00 85 1015.3
20260510052842 10 117 1.6 8.0 0.00 0.00 0.00 85 1015.3
20260510052341 10 113 3.2 6.4 0.00 0.00 0.00 85 1015.5
20260510051821 10 117 0.0 1.6 0.00 0.00 0.00 85 1015.5
20260510051322 9 113 0.0 1.6 0.00 0.00 0.00 87 1015.5
20260510050821 8 120 0.0 3.2 0.00 0.00 0.00 87 1015.5
20260510050324 8 134 0.0 3.2 0.00 0.00 0.00 88 1015.5
20260510045325 8 125 0.0 1.6 0.00 0.00 0.00 89 1015.5
20260510044824 8 131 0.0 1.6 0.00 0.00 0.00 89 1015.6
20260510044324 8 131 0.0 1.6 0.00 0.00 0.00 90 1015.7
20260510043824 7 131 0.0 3.2 0.00 0.00 0.00 91 1015.6
20260510043345 7 131 1.6 3.2 0.00 0.00 0.00 91 1015.6
20260510042825 7 115 0.0 3.2 0.00 0.00 0.00 92 1015.6
20260510042326 7 115 0.0 3.2 0.00 0.00 0.00 92 1015.6
20260510041828 7 122 0.0 1.6 0.00 0.00 0.00 93 1015.5
20260510041330 7 122 0.0 1.6 0.00 0.00 0.00 93 1015.5
20260510040831 7 122 0.0 1.6 0.00 0.00 0.00 94 1015.6
20260510040350 7 122 0.0 0.0 0.00 0.00 0.00 94 1015.5
20260510035852 6 122 0.0 0.0 0.00 0.00 0.00 94 1015.5
20260510035314 6 122 0.0 0.0 0.00 0.00 0.00 94 1015.5
20260510034816 6 122 0.0 0.0 0.00 0.00 0.00 94 1015.5
20260510034316 6 122 0.0 0.0 0.00 0.00 0.00 94 1015.5
20260510033818 6 122 0.0 0.0 0.00 0.00 0.00 94 1015.5
20260510033321 5 122 0.0 0.0 0.00 0.00 0.00 94 1015.5
20260510032822 5 122 0.0 0.0 0.00 0.00 0.00 93 1015.5
20260510032325 6 122 0.0 0.0 0.00 0.00 0.00 94 1015.5
20260510031827 6 122 0.0 1.6 0.00 0.00 0.00 94 1015.5
20260510031330 6 122 0.0 1.6 0.00 0.00 0.00 94 1015.6
20260510030831 6 122 0.0 1.6 0.00 0.00 0.00 94 1015.6
20260510030313 5 122 0.0 1.6 0.00 0.00 0.00 93 1015.7
20260510025815 5 122 0.0 1.6 0.00 0.00 0.00 93 1015.8
20260510025317 6 122 0.0 1.6 0.00 0.00 0.00 93 1015.9
20260510024839 5 122 0.0 1.6 0.00 0.00 0.00 93 1016.0
20260510024340 6 122 0.0 0.0 0.00 0.00 0.00 93 1016.0
20260510023820 6 122 0.0 1.6 0.00 0.00 0.00 92 1016.1
20260510023323 6 122 0.0 1.6 0.00 0.00 0.00 92 1016.2
20260510022823 6 122 1.6 1.6 0.00 0.00 0.00 92 1016.3
20260510022325 6 121 0.0 0.0 0.00 0.00 0.00 92 1016.3
20260510021826 6 121 0.0 0.0 0.00 0.00 0.00 92 1016.2
20260510021349 6 121 0.0 1.6 0.00 0.00 0.00 93 1016.2
20260510020829 6 122 0.0 1.6 0.00 0.00 0.00 92 1016.2
20260510020351 6 122 0.0 0.0 0.00 0.00 0.00 92 1016.3
20260510015832 6 121 0.0 1.6 0.00 0.00 0.00 92 1016.3
20260510015315 6 122 0.0 1.6 0.00 0.00 0.00 91 1016.4
20260510014830 7 122 0.0 1.6 0.00 0.00 0.00 91 1016.5
20260510014331 7 122 0.0 1.6 0.00 0.00 0.00 92 1016.5
20260510013831 7 122 0.0 4.8 0.00 0.00 0.00 92 1016.6
20260510013332 7 122 1.6 4.8 0.00 0.00 0.00 92 1016.6
20260510012332 7 101 0.0 0.0 0.00 0.00 0.00 92 1016.7
20260510011813 7 101 0.0 0.0 0.00 0.00 0.00 92 1016.8
20260510011316 7 101 0.0 0.0 0.00 0.00 0.00 92 1016.9
20260510010819 7 101 0.0 0.0 0.00 0.00 0.00 92 1017.0
20260510010342 7 101 0.0 0.0 0.00 0.00 0.00 92 1017.0
20260510005823 7 101 0.0 0.0 0.00 0.00 0.00 92 1017.0
20260510005346 7 101 0.0 0.0 0.00 0.00 0.00 91 1017.1
20260510004847 7 101 0.0 0.0 0.00 0.00 0.00 91 1017.2
20260510004329 7 101 0.0 0.0 0.00 0.00 0.00 92 1017.2
20260510003812 7 101 0.0 0.0 0.00 0.00 0.00 91 1017.2
20260510003314 7 101 0.0 0.0 0.00 0.00 0.00 92 1017.2
20260510002837 7 101 0.0 0.0 0.00 0.00 0.00 91 1017.2
20260510002320 7 101 0.0 0.0 0.00 0.00 0.00 91 1017.3
20260510001821 7 101 0.0 0.0 0.00 0.00 0.00 90 1017.3
20260510001322 7 101 0.0 0.0 0.00 0.00 0.00 91 1017.4
20260510000844 7 101 0.0 0.0 0.00 0.00 0.00 90 1017.5
20260510000344 7 101 0.0 0.0 0.00 0.00 0.00 90 1017.5
20260509235823 7 101 0.0 0.0 0.00 0.00 0.00 89 1017.5
20260509235323 7 101 0.0 0.0 0.00 0.00 0.00 89 1017.6
20260509234824 7 101 0.0 0.0 0.00 0.00 0.00 89 1017.6
20260509234326 7 101 0.0 0.0 0.00 0.00 0.00 90 1017.6
20260509233828 7 101 0.0 0.0 0.00 0.00 0.00 89 1017.7
20260509233323 7 101 0.0 0.0 0.00 0.00 0.00 90 1017.7
20260509232823 7 101 0.0 0.0 0.00 0.00 0.00 89 1017.8
20260509232324 7 101 0.0 0.0 0.00 0.00 0.00 89 1017.9
20260509231844 8 101 0.0 0.0 0.00 0.00 0.00 88 1018.1
20260509231324 8 101 0.0 0.0 0.00 0.00 0.00 88 1018.0
20260509230824 8 101 0.0 0.0 0.00 0.00 0.00 88 1018.1
20260509230324 8 101 0.0 0.0 0.00 0.00 0.00 88 1018.0
20260509225826 8 101 0.0 0.0 0.00 0.00 0.00 88 1018.1
20260509225347 8 101 0.0 0.0 0.00 0.00 0.00 89 1018.1
20260509224825 8 122 0.0 0.0 0.00 0.00 0.00 88 1018.1
20260509224325 8 122 0.0 0.0 0.00 0.00 0.00 89 1018.2
20260509223825 8 122 0.0 0.0 0.00 0.00 0.00 88 1018.2
20260509223325 8 122 0.0 0.0 0.00 0.00 0.00 87 1018.1
20260509222826 8 122 0.0 0.0 0.00 0.00 0.00 87 1018.2
20260509222328 8 122 0.0 0.0 0.00 0.00 0.00 88 1018.4
20260509221831 8 122 0.0 0.0 0.00 0.00 0.00 88 1018.4
20260509221334 8 122 0.0 0.0 0.00 0.00 0.00 88 1018.3
20260509220835 8 122 0.0 1.6 0.00 0.00 0.00 88 1018.3
20260509220358 8 122 0.0 1.6 0.00 0.00 0.00 88 1018.2
20260509215813 8 122 0.0 0.0 0.00 0.00 0.00 87 1018.2
20260509215318 8 122 0.0 0.0 0.00 0.00 0.00 87 1018.1
20260509214822 8 122 0.0 0.0 0.00 0.00 0.00 87 1018.1
20260509214325 8 122 0.0 0.0 0.00 0.00 0.00 86 1018.1
20260509213826 9 122 0.0 0.0 0.00 0.00 0.00 86 1018.2
20260509213346 9 122 0.0 1.6 0.00 0.00 0.00 85 1018.3
20260509212826 9 122 0.0 1.6 0.00 0.00 0.00 85 1018.3
20260509212326 10 122 0.0 1.6 0.00 0.00 0.00 85 1018.3
20260509211829 10 122 0.0 1.6 0.00 0.00 0.00 85 1018.3
20260509211314 10 122 0.0 1.6 0.00 0.00 0.00 84 1018.3
20260509210323 10 122 0.0 1.6 0.00 0.00 0.00 84 1018.3
20260509205826 10 122 0.0 1.6 0.00 0.00 0.00 83 1018.3
20260509205348 10 122 0.0 3.2 0.00 0.00 0.00 83 1018.4
20260509204828 10 126 1.6 3.2 0.00 0.00 0.00 84 1018.4
20260509204331 10 142 0.0 0.0 0.00 0.00 0.00 84 1018.5
20260509203831 10 142 0.0 0.0 0.00 0.00 0.00 84 1018.5
20260509203314 10 142 0.0 0.0 0.00 0.00 0.00 83 1018.5
20260509202816 10 142 0.0 0.0 0.00 0.00 0.00 83 1018.5
20260509202318 10 142 0.0 0.0 0.00 0.00 0.00 82 1018.5
20260509201821 10 142 0.0 0.0 0.00 0.00 0.00 80 1018.5
20260509201323 11 142 0.0 0.0 0.00 0.00 0.00 79 1018.4
20260509200825 11 142 0.0 0.0 0.00 0.00 0.00 79 1018.4
20260509200329 11 142 0.0 0.0 0.00 0.00 0.00 78 1018.4
20260509195853 11 142 0.0 0.0 0.00 0.00 0.00 77 1018.4
20260509195313 11 142 0.0 0.0 0.00 0.00 0.00 77 1018.4
20260509194816 12 142 0.0 0.0 0.00 0.00 0.00 76 1018.4
20260509194320 12 142 0.0 0.0 0.00 0.00 0.00 76 1018.4
20260509193822 12 142 0.0 0.0 0.00 0.00 0.00 76 1018.4
20260509193331 12 142 0.0 1.6 0.00 0.00 0.00 75 1018.4
20260509192832 12 142 0.0 1.6 0.00 0.00 0.00 75 1018.4
20260509192313 12 135 0.0 1.6 0.00 0.00 0.00 75 1018.3
20260509191815 12 134 0.0 1.6 0.00 0.00 0.00 74 1018.3
20260509191318 12 136 0.0 1.6 0.00 0.00 0.00 73 1018.2
20260509190819 13 136 0.0 1.6 0.00 0.00 0.00 72 1018.2
20260509190320 13 136 0.0 1.6 0.00 0.00 0.00 71 1018.2
20260509185842 13 136 0.0 1.6 0.00 0.00 0.00 71 1018.1
20260509185322 13 136 0.0 3.2 0.00 0.00 0.00 70 1018.1
20260509184827 13 136 0.0 3.2 0.00 0.00 0.00 69 1018.0
20260509184350 13 136 0.0 4.8 0.00 0.00 0.00 68 1018.0
20260509183814 14 139 1.6 4.8 0.00 0.00 0.00 68 1018.0
20260509183346 14 124 0.0 3.2 0.00 0.00 0.00 67 1018.0
20260509182830 14 133 1.6 6.4 0.00 0.00 0.00 67 1018.0
20260509182332 15 149 1.6 6.4 0.00 0.00 0.00 66 1018.0
20260509181815 15 141 3.2 4.8 0.00 0.00 0.00 66 1018.1
20260509181338 15 129 3.2 4.8 0.00 0.00 0.00 66 1018.0
20260509180818 15 122 1.6 6.4 0.00 0.00 0.00 66 1018.1
20260509180318 15 122 3.2 8.0 0.00 0.00 0.00 65 1018.1
20260509175817 15 144 4.8 8.0 0.00 0.00 0.00 65 1018.1
20260509175321 15 139 3.2 6.4 0.00 0.00 0.00 66 1018.2
20260509174825 15 127 3.2 4.8 0.00 0.00 0.00 65 1018.2
20260509174325 15 137 1.6 4.8 0.00 0.00 0.00 65 1018.2
20260509173849 15 137 1.6 8.0 0.00 0.00 0.00 64 1018.2
20260509173350 15 129 1.6 8.0 0.00 0.00 0.00 63 1018.2
20260509172829 15 134 3.2 9.7 0.00 0.00 0.00 63 1018.2
20260509172349 16 122 3.2 9.7 0.00 0.00 0.00 63 1018.2
20260509171829 16 72 1.6 6.4 0.00 0.00 0.00 62 1018.3
20260509171329 16 86 3.2 8.0 0.00 0.00 0.00 61 1018.2
20260509170828 16 116 4.8 8.0 0.00 0.00 0.00 61 1018.3
20260509170351 16 124 1.6 6.4 0.00 0.00 0.00 62 1018.3
20260509165814 16 121 3.2 8.0 0.00 0.00 0.00 62 1018.4
20260509165318 16 146 1.6 4.8 0.00 0.00 0.00 61 1018.4
20260509164840 16 121 0.0 3.2 0.00 0.00 0.00 60 1018.4
20260509164339 16 121 0.0 3.2 0.00 0.00 0.00 59 1018.4
20260509163839 16 58 0.0 1.6 0.00 0.00 0.00 59 1018.4
20260509163317 16 58 0.0 1.6 0.00 0.00 0.00 58 1018.5
20260509162817 16 56 0.0 1.6 0.00 0.00 0.00 58 1018.5
20260509162317 16 56 0.0 1.6 0.00 0.00 0.00 58 1018.6
20260509161817 16 56 0.0 3.2 0.00 0.00 0.00 58 1018.6
20260509161317 16 56 1.6 3.2 0.00 0.00 0.00 58 1018.6
20260509160819 16 56 0.0 4.8 0.00 0.00 0.00 58 1018.7
20260509160321 16 55 1.6 4.8 0.00 0.00 0.00 58 1018.7
20260509155823 17 60 3.2 4.8 0.00 0.00 0.00 57 1018.7
20260509155326 17 128 1.6 3.2 0.00 0.00 0.00 56 1018.8
20260509154829 17 133 1.6 4.8 0.00 0.00 0.00 55 1018.8
20260509154352 17 202 1.6 8.0 0.00 0.00 0.00 55 1018.8
20260509153832 17 52 4.8 8.0 0.00 0.00 0.00 55 1018.8
20260509153315 17 149 0.0 1.6 0.00 0.00 0.00 55 1018.8
20260509152838 17 142 0.0 3.2 0.00 0.00 0.00 56 1018.9
20260509152318 16 68 0.0 1.6 0.00 0.00 0.00 56 1018.9
20260509151821 16 68 0.0 1.6 0.00 0.00 0.00 57 1018.9
20260509151324 16 68 0.0 3.2 0.00 0.00 0.00 57 1018.9
20260509150825 16 68 1.6 3.2 0.00 0.00 0.00 57 1018.9
20260509150328 16 67 1.6 4.8 0.00 0.00 0.00 57 1018.9
20260509145830 16 68 3.2 4.8 0.00 0.00 0.00 56 1019.0
20260509145333 17 73 0.0 3.2 0.00 0.00 0.00 58 1019.0
20260509144819 16 1 0.0 6.4 0.00 0.00 0.00 58 1019.0
20260509144320 16 1 0.0 6.4 0.00 0.00 0.00 58 1019.0
20260509143824 17 53 1.6 4.8 0.00 0.00 0.00 57 1019.1
20260509143329 17 53 0.0 3.2 0.00 0.00 0.00 56 1019.1
20260509142814 16 53 0.0 4.8 0.00 0.00 0.00 57 1019.1
20260509142316 16 53 1.6 6.4 0.00 0.00 0.00 57 1019.1
20260509141320 16 45 3.2 6.4 0.00 0.00 0.00 56 1019.2
20260509140820 16 37 3.2 6.4 0.00 0.00 0.00 57 1019.2
20260509140321 16 37 3.2 8.0 0.00 0.00 0.00 57 1019.3
20260509135822 17 22 1.6 8.0 0.00 0.00 0.00 56 1019.3
20260509135322 16 68 1.6 8.0 0.00 0.00 0.00 56 1019.3
20260509134825 17 54 4.8 8.0 0.00 0.00 0.00 56 1019.4
20260509134328 17 61 1.6 4.8 0.00 0.00 0.00 56 1019.4
20260509133851 17 37 1.6 8.0 0.00 0.00 0.00 54 1019.5
20260509133331 17 46 3.2 8.0 0.00 0.00 0.00 55 1019.5
20260509132812 17 62 3.2 6.4 0.00 0.00 0.00 56 1019.5